Time,TemperatureF,DewpointF,PressureIn,WindDirection,WindDirectionDegrees,WindSpeedMPH,WindSpeedGustMPH,Humidity,HourlyPrecipIn,Conditions,Clouds,dailyrainin,SoftwareType,DateUTC
2013-05-20 00:02:00,50.8,28.0,30.21,SSW,196,0.0,0.0,41,0.00,,,0.00,VWS V13.01,2013-05-20 04:02:00,
2013-05-20 00:32:00,50.8,28.0,30.19,SSW,196,0.0,0.0,41,0.00,,,0.00,VWS V13.01,2013-05-20 04:32:00,
2013-05-20 01:02:00,50.8,28.0,30.18,SSW,196,0.0,4.0,41,0.00,,,0.00,VWS V13.01,2013-05-20 05:02:00,
2013-05-20 01:32:00,50.8,28.0,30.17,SSW,196,0.0,3.0,41,0.00,,,0.00,VWS V13.01,2013-05-20 05:32:00,
2013-05-20 02:02:00,50.8,28.0,30.15,SSW,196,0.0,0.0,41,0.00,,,0.00,VWS V13.01,2013-05-20 06:02:00,
2013-05-20 02:32:00,50.8,28.0,30.14,SSW,196,0.0,5.0,41,0.00,,,0.00,VWS V13.01,2013-05-20 06:32:00,
2013-05-20 03:02:00,50.8,28.0,30.13,South,189,0.0,5.0,41,0.01,,,0.01,VWS V13.01,2013-05-20 07:02:00,
2013-05-20 03:32:00,50.8,28.0,30.11,South,186,0.0,6.0,41,0.03,,,0.03,VWS V13.01,2013-05-20 07:32:00,
2013-05-20 04:02:00,50.8,28.0,30.09,SE,146,6.0,9.0,41,0.05,,,0.05,VWS V13.01,2013-05-20 08:02:00,
2013-05-20 04:32:00,50.8,28.0,30.08,SSE,162,4.0,7.0,41,0.07,,,0.08,VWS V13.01,2013-05-20 08:32:00,
2013-05-20 05:02:00,50.8,28.0,30.07,South,188,8.0,10.0,41,0.07,,,0.10,VWS V13.01,2013-05-20 09:02:00,
2013-05-20 05:32:00,50.8,28.0,30.06,South,176,6.0,16.0,41,0.07,,,0.12,VWS V13.01,2013-05-20 09:32:00,
2013-05-20 06:02:00,50.8,28.0,30.05,SSW,204,15.0,19.0,41,0.07,,,0.15,VWS V13.01,2013-05-20 10:02:00,
2013-05-20 06:32:00,50.8,28.0,30.04,South,180,14.0,25.0,41,0.08,,,0.18,VWS V13.01,2013-05-20 10:32:00,
2013-05-20 07:02:00,50.8,28.0,30.03,SSE,153,7.0,14.0,41,0.12,,,0.24,VWS V13.01,2013-05-20 11:02:00,
2013-05-20 07:32:00,50.8,28.0,30.05,SSE,164,0.0,11.0,41,0.14,,,0.29,VWS V13.01,2013-05-20 11:32:00,
2013-05-20 08:02:00,50.8,28.0,30.03,SSE,159,0.0,6.0,41,0.15,,,0.33,VWS V13.01,2013-05-20 12:02:00,
2013-05-20 08:32:00,50.8,28.0,29.98,SSW,194,6.0,18.0,41,0.13,,,0.37,VWS V13.01,2013-05-20 12:32:00,
2013-05-20 09:02:00,50.8,28.0,29.98,SSW,197,4.0,17.0,41,0.12,,,0.41,VWS V13.01,2013-05-20 13:02:00,
2013-05-20 09:32:00,50.8,-99.9,29.98,SW,223,0.0,9.0,41,0.11,,,0.44,VWS V13.01,2013-05-20 13:32:00,
2013-05-20 10:02:00,50.8,-99.9,29.97,SW,220,0.0,6.0,41,0.09,,,0.46,VWS V13.01,2013-05-20 14:02:00,
2013-05-20 10:32:00,50.8,-99.9,29.97,West,261,7.0,9.0,41,0.08,,,0.49,VWS V13.01,2013-05-20 14:32:00,
2013-05-20 11:02:00,50.8,-99.9,29.96,West,273,3.0,10.0,41,0.18,,,0.62,VWS V13.01,2013-05-20 15:02:00,
2013-05-20 11:32:00,50.8,-99.9,29.95,West,266,6.0,10.0,41,0.24,,,0.70,VWS V13.01,2013-05-20 15:32:00,
2013-05-20 12:02:00,50.8,-99.9,29.94,WNW,284,4.0,12.0,41,0.31,,,0.80,VWS V13.01,2013-05-20 16:02:00,
2013-05-20 12:32:00,50.8,-99.9,29.92,WNW,292,5.0,10.0,41,0.37,,,0.99,VWS V13.01,2013-05-20 16:32:00,
2013-05-20 13:02:00,61.3,38.0,29.91,NNW,338,4.0,9.0,42,0.42,,,1.12,VWS V13.01,2013-05-20 17:02:00,
2013-05-20 13:32:00,62.1,47.2,29.91,NW,306,5.0,11.0,58,0.32,,,1.12,VWS V13.01,2013-05-20 17:32:00,
2013-05-20 14:02:00,62.9,53.8,29.89,NNW,330,6.0,13.0,72,0.13,,,1.12,VWS V13.01,2013-05-20 18:02:00,
2013-05-20 14:32:00,65.2,56.7,29.90,NW,305,9.0,14.0,74,0.00,,,1.12,VWS V13.01,2013-05-20 18:32:00,
2013-05-20 15:02:00,67.1,58.2,29.89,NNW,348,13.0,15.0,73,0.00,,,1.12,VWS V13.01,2013-05-20 19:02:00,
2013-05-20 15:32:00,69.2,59.8,29.88,NW,324,13.0,18.0,72,0.00,,,1.12,VWS V13.01,2013-05-20 19:32:00,
2013-05-20 16:02:00,67.4,58.5,29.88,SE,129,5.0,16.0,73,0.00,,,1.12,VWS V13.01,2013-05-20 20:02:00,
2013-05-20 16:32:00,64.9,56.4,29.88,SE,134,5.0,14.0,74,0.00,,,1.12,VWS V13.01,2013-05-20 20:32:00,
2013-05-20 17:02:00,62.6,54.6,29.89,ESE,115,6.0,16.0,75,0.00,,,1.12,VWS V13.01,2013-05-20 21:02:00,
2013-05-20 17:32:00,61.7,53.0,29.90,SE,126,6.0,11.0,73,0.00,,,1.12,VWS V13.01,2013-05-20 21:32:00,
2013-05-20 18:02:00,60.8,51.3,29.91,SE,132,11.0,11.0,71,0.00,,,1.12,VWS V13.01,2013-05-20 22:02:00,
2013-05-20 18:32:00,60.8,51.3,29.91,SE,128,0.0,12.0,71,0.00,,,1.12,VWS V13.01,2013-05-20 22:32:00,
2013-05-20 19:02:00,61.8,52.3,29.92,SE,134,0.0,6.0,71,0.00,,,1.12,VWS V13.01,2013-05-20 23:02:00,
2013-05-20 19:32:00,61.2,51.7,29.93,SE,134,0.0,5.0,71,0.00,,,1.12,VWS V13.01,2013-05-20 23:32:00,
2013-05-20 20:02:00,59.0,48.5,29.92,SE,131,0.0,4.0,68,0.00,,,1.12,VWS V13.01,2013-05-21 00:02:00,
2013-05-20 20:32:00,56.2,44.6,29.93,SE,132,0.0,0.0,65,0.00,,,1.12,VWS V13.01,2013-05-21 00:32:00,
2013-05-20 21:02:00,56.7,41.7,29.94,SE,126,0.0,7.0,57,0.00,,,1.12,VWS V13.01,2013-05-21 01:02:00,
2013-05-20 21:32:00,55.8,38.0,29.95,SE,144,0.0,11.0,51,0.00,,,1.12,VWS V13.01,2013-05-21 01:32:00,
2013-05-20 22:02:00,55.8,34.8,29.95,SE,145,2.0,3.0,45,0.00,,,1.12,VWS V13.01,2013-05-21 02:02:00,
2013-05-20 22:32:00,55.8,33.1,29.95,SE,144,0.0,3.0,42,0.00,,,1.12,VWS V13.01,2013-05-21 02:32:00,
2013-05-20 23:02:00,55.7,32.4,29.95,SE,144,0.0,0.0,41,0.00,,,1.12,VWS V13.01,2013-05-21 03:02:00,
2013-05-20 23:32:00,55.6,-99.9,29.96,SSE,147,0.0,5.0,40,0.00,,,1.12,VWS V13.01,2013-05-21 03:32:00,